Theta_e
309 311 312 312 312 312 312 313 315 316 317 316 317 318 318 319 320 319 319 320 318 318 319 319 317 316 313 309 313 310 308 309 307 311 314 315 316 319 317 318 318 317 314
309 311 311 311 311 311 312 312 313 315 316 318 320 318 317 316 318 318 317 317 316 316 316 316 313 312 312 312 315 314 313 312 312 313 312 308 309 308 311 313 310 308 310
311 311 310 309 310 310 311 312 313 314 315 317 317 315 314 314 313 313 313 312 312 313 314 314 312 313 312 313 315 315 313 313 316 313 306 303 304 305 307 307 308 309 309
312 311 310 308 309 309 310 311 312 313 314 314 315 314 313 312 311 310 310 309 309 309 311 312 312 313 314 313 313 314 314 315 313 308 304 302 303 303 305 305 305 304 304
312 311 311 308 308 309 310 310 311 312 313 314 313 312 311 311 309 309 309 308 307 306 307 308 310 312 311 311 312 314 315 311 309 306 303 302 302 302 305 303 303 301 303
312 312 311 308 307 309 308 308 309 309 310 312 312 311 311 309 301 302 305 305 304 305 305 304 306 307 306 304 305 305 307 311 307 305 302 304 302 302 301 302 300 299 298
312 313 311 309 308 308 307 307 306 306 307 309 309 310 309 307 298 298 299 301 301 301 301 301 302 302 304 305 303 302 302 301 304 308 307 305 304 303 302 299 299 299 300
312 313 312 309 307 308 307 306 304 304 305 305 306 307 308 307 297 296 296 298 297 297 298 298 301 300 301 302 302 302 301 301 303 303 308 309 307 304 304 303 301 299 298
312 314 314 310 307 307 307 305 303 303 302 303 304 305 306 307 297 295 297 297 297 297 297 297 296 298 295 294 301 300 299 297 295 295 295 295 293 294 298 298 297 297 297
313 315 315 311 308 307 307 305 305 304 304 303 303 304 302 306 296 295 298 299 299 299 301 301 297 296 293 292 299 299 299 299 295 294 296 296 296 297 296 302 299 297 295
315 316 316 312 309 308 307 306 306 305 305 303 303 303 303 303 303 296 296 305 305 304 303 303 303 295 292 292 293 298 298 295 294 294 294 294 295 297 299 299 299 299 296
315 316 316 314 312 309 307 307 308 305 304 303 303 302 302 303 298 295 295 297 301 306 305 304 303 295 294 292 294 292 289 291 293 293 292 292 293 294 295 297 299 298 298
314 315 316 315 314 310 307 306 307 307 305 305 304 304 303 303 303 296 294 294 295 304 305 300 296 294 293 294 292 292 290 292 292 291 291 292 292 295 296 295 297 298 298
313 314 316 316 315 313 311 309 309 308 307 307 306 306 307 307 306 305 301 299 295 299 299 300 298 296 294 296 296 295 296 294 293 292 293 294 293 294 294 295 295 296 295
312 314 315 316 315 315 314 311 310 311 310 310 309 310 309 308 310 306 304 304 300 298 298 298 297 298 300 299 296 296 295 295 294 295 294 294 294 294 295 297 296 297 295
312 313 314 315 315 317 316 315 302 301 300 299 297 307 312 303 300 297 298 296 293 292 298 299 298 299 301 301 298 298 295 293 295 295 296 297 296 296 296 297 297 297 296
312 313 314 313 315 316 316 316 315 312 299 296 296 296 297 302 295 294 295 294 291 293 304 302 302 302 302 302 300 299 298 297 297 295 295 294 295 296 295 296 296 295 293
314 304 314 315 315 316 316 317 317 316 316 316 298 297 295 294 294 293 292 295 297 297 304 306 307 307 305 302 300 299 297 297 294 293 294 293 294 294 294 293 293 293 294
315 315 316 316 316 314 316 317 317 317 317 317 304 298 294 292 292 291 293 311 309 305 304 304 304 306 304 303 301 299 295 292 291 291 291 291 292 292 292 293 293 289 291
315 308 310 316 315 314 315 315 316 316 315 314 311 305 302 303 306 303 307 309 308 307 306 305 306 302 299 297 294 293 292 292 292 292 292 292 292 292 292 293 294 294 294
313 313 304 313 312 313 314 314 315 315 310 306 304 298 291 307 305 303 302 301 301 300 298 297 295 295 295 294 293 293 293 293 294 294 294 294 294 294 296 296 296 296 296
312 310 311 312 314 314 313 312 309 306 303 300 300 298 290 301 301 301 299 297 296 295 294 295 293 293 294 294 294 295 294 294 295 296 295 295 296 296 295 294 295 295 294
314 313 312 311 309 302 307 307 305 303 302 302 302 301 302 302 301 300 297 296 295 294 294 295 295 294 294 295 295 294 293 292 293 294 294 294 295 295 295 295 293 292 291
313 312 311 311 311 309 307 305 304 299 304 302 302 302 300 298 297 295 293 293 293 294 294 294 294 294 294 294 294 294 292 292 294 294 295 295 295 294 295 294 293 291 289
315 312 311 310 309 308 307 306 305 303 301 299 298 297 295 294 293 293 294 294 294 294 293 294 294 294 294 293 292 291 287 286 290 287 294 294 294 293 294 293 291 289 289
315 314 312 311 308 306 304 302 300 299 298 297 296 295 295 294 294 294 294 294 293 294 294 294 293 294 293 292 290 286 285 285 287 285 292 293 292 292 292 290 289 289 288
Wind_Speed
3 2 2 1 3 4 5 5 3 4 3 6 5 6 6 7 8 7 6 8 7 6 5 8 6 5 4 4 3 3 3 3 7 2 1 1 2 3 3 4 4 6 7
4 3 3 2 3 4 4 4 3 6 4 5 6 8 7 7 4 8 8 7 10 10 8 8 7 5 5 4 3 4 3 3 6 6 2 2 3 2 3 6 5 5 6
5 5 4 2 3 3 3 4 5 6 5 6 8 8 7 7 9 8 9 8 8 7 6 9 9 9 6 4 3 4 3 3 3 5 4 1 2 2 5 4 4 4 4
5 5 4 4 3 2 3 3 4 5 6 6 6 7 7 7 9 8 8 8 8 7 6 6 6 5 6 6 4 4 3 5 4 4 3 3 2 2 2 4 4 2 3
6 5 5 4 3 3 4 4 4 5 5 5 7 6 5 6 5 7 6 6 7 7 6 6 6 6 6 4 4 5 6 4 4 4 3 2 3 3 4 3 3 2 2
7 6 6 5 5 4 4 5 5 5 5 5 5 6 5 3 6 8 7 5 5 5 5 5 4 6 9 10 9 12 4 6 5 5 3 4 4 3 4 4 4 3 4
8 7 6 6 6 5 5 5 5 5 4 4 5 5 5 4 7 9 9 5 5 5 4 4 4 4 6 5 9 10 9 8 5 5 6 5 5 7 7 5 5 4 4
7 8 7 7 6 6 6 6 5 4 4 4 4 4 3 2 6 7 8 6 5 5 5 5 5 4 4 5 5 5 3 3 2 2 4 5 5 7 7 6 6 4 1
8 9 9 8 7 7 6 6 4 4 4 4 4 5 5 3 6 7 7 5 5 5 4 5 5 5 6 8 5 5 4 2 4 5 2 3 6 7 7 7 6 6 4
10 10 9 10 9 8 8 7 4 4 5 4 4 4 5 4 8 9 6 3 4 4 4 5 8 6 10 9 5 4 3 2 4 2 2 4 4 6 10 4 7 6 3
11 10 10 9 10 9 7 5 5 5 4 4 5 4 6 7 7 13 12 5 4 4 4 4 4 8 9 10 8 5 5 4 3 3 2 3 4 5 7 7 7 6 6
12 12 11 9 8 7 8 5 5 6 6 5 5 5 5 6 9 10 13 11 8 5 5 2 3 9 10 10 7 7 8 5 2 3 4 5 6 7 7 7 7 7 6
13 12 11 10 9 8 9 7 4 5 5 5 4 4 5 3 5 11 11 12 11 3 0 3 5 8 7 5 8 8 7 5 5 4 7 7 6 5 4 3 7 7 8
15 13 11 11 10 7 7 6 6 6 5 5 5 7 6 4 5 5 6 4 4 5 2 2 2 2 4 4 4 6 6 6 7 8 8 6 4 4 6 6 6 6 5
16 13 12 11 12 10 10 10 10 9 11 9 11 10 7 8 9 6 8 6 6 7 6 3 3 4 3 5 5 6 5 5 7 7 7 8 8 8 8 7 8 7 9
16 13 12 11 9 9 9 8 11 11 17 18 2 8 5 7 9 13 15 13 12 16 3 3 3 4 6 5 5 5 5 6 7 7 8 8 8 9 8 7 8 9 10
18 17 13 13 11 11 10 10 10 11 12 12 14 11 10 8 7 8 13 12 9 11 3 3 4 5 5 5 4 3 4 3 5 6 7 7 6 7 7 8 8 8 10
17 16 14 14 13 11 11 11 10 9 9 9 2 5 10 7 7 10 13 12 4 4 4 4 3 3 2 3 3 3 2 3 4 5 6 6 6 7 7 8 8 9 9
16 11 13 11 13 13 12 11 11 10 8 6 3 5 8 8 6 7 5 2 2 2 4 2 2 3 3 2 3 4 4 5 4 4 4 5 6 6 7 8 8 9 8
15 19 14 10 11 11 10 10 9 9 4 5 4 4 3 3 5 5 3 2 4 4 2 1 4 2 2 1 1 2 2 3 4 4 4 5 5 6 8 8 8 8 7
9 8 10 8 8 10 9 8 5 6 7 7 6 3 5 10 8 7 7 6 6 6 7 6 4 3 3 3 3 3 2 2 3 4 4 4 4 5 5 6 7 7 7
7 7 9 6 7 8 7 7 8 10 10 11 9 7 7 9 8 8 9 8 6 3 6 3 3 5 4 4 4 4 5 7 7 6 6 6 5 5 5 5 5 4 4
11 11 9 7 9 11 10 10 11 12 12 11 10 9 8 8 9 9 4 12 5 5 6 2 5 5 5 7 7 7 7 6 5 6 6 6 6 5 5 5 4 3 5
12 13 13 11 11 12 12 13 12 12 12 11 8 8 10 8 5 9 8 8 9 7 6 6 7 8 7 7 6 7 6 5 4 5 7 6 5 5 5 5 6 6 4
11 14 16 16 14 12 11 10 11 12 11 11 12 7 9 8 7 10 9 8 8 8 8 6 6 8 11 11 8 8 6 5 8 5 5 6 6 6 5 5 5 4 4
12 13 11 10 13 12 11 11 11 11 12 10 11 10 11 10 9 9 8 8 7 7 7 5 8 11 10 8 9 7 6 6 5 5 5 5 5 5 4 5 6 5 6
Wind_Direction
185 156 144 37 61 55 68 73 80 70 71 93 103 85 90 111 116 127 117 128 117 111 101 114 108 124 114 105 103 89 88 86 118 116 106 70 83 137 104 95 118 125 136
179 150 145 111 70 66 69 72 68 91 57 75 87 86 79 73 80 104 106 107 118 118 118 113 110 96 114 135 133 123 139 134 130 130 99 84 79 65 95 93 98 113 129
164 149 145 130 112 100 74 58 66 90 74 60 81 83 85 84 81 67 81 79 79 86 113 130 138 138 143 146 147 130 116 114 97 136 128 136 105 66 78 73 91 85 99
162 156 159 165 173 138 112 82 85 92 97 77 63 80 84 84 85 82 87 86 82 78 83 93 108 114 133 133 126 145 133 125 110 118 103 103 99 80 96 146 139 95 124
160 167 182 162 149 124 117 111 99 90 102 109 103 74 75 93 109 109 97 96 95 84 64 65 65 85 106 129 134 150 146 133 134 132 115 122 156 169 183 153 157 151 171
161 178 165 155 145 132 121 124 116 105 97 109 109 119 113 93 116 98 108 107 99 103 105 83 73 75 65 53 67 77 83 147 149 148 158 184 185 180 161 173 141 169 213
162 161 164 160 148 147 137 129 130 138 131 130 127 132 137 143 138 126 127 127 129 118 114 102 80 62 74 86 80 85 77 82 147 154 166 193 179 194 154 175 192 189 201
162 160 157 161 155 153 150 153 146 141 150 143 145 147 146 160 151 145 125 122 116 125 138 142 134 133 130 133 122 108 104 78 89 167 192 195 212 176 183 178 173 161 116
168 169 166 164 155 156 163 163 149 138 155 178 184 172 177 192 171 160 139 131 130 143 150 160 162 163 173 157 135 140 148 150 58 45 347 249 195 173 156 140 166 170 200
175 181 171 166 162 168 170 169 158 164 177 165 173 194 196 198 183 191 166 148 154 177 191 191 194 175 170 175 153 163 177 205 180 170 123 86 125 169 184 206 165 190 177
176 169 169 170 173 174 162 157 161 167 158 183 203 205 209 202 197 198 199 178 184 188 208 203 199 188 178 189 182 178 194 159 178 194 195 191 196 198 207 218 208 193 189
169 169 174 173 177 166 167 165 166 165 180 195 205 232 220 214 212 202 204 214 184 202 215 172 193 191 198 199 192 206 185 159 173 219 240 237 229 223 224 220 226 231 242
169 172 176 175 179 166 168 170 163 175 185 206 212 234 253 224 229 215 213 214 217 231 41 156 173 202 208 208 223 216 183 206 211 220 235 240 230 238 236 236 242 243 250
174 177 175 175 178 170 180 178 182 183 197 210 216 235 243 248 243 223 224 219 200 209 133 131 201 192 207 218 222 223 228 219 217 229 237 248 237 216 229 212 231 218 231
175 179 181 182 181 182 190 185 192 210 200 200 217 218 209 230 238 179 183 200 196 195 143 175 197 198 212 230 236 235 236 232 234 241 255 255 252 242 234 207 222 216 227
182 181 187 185 180 186 189 201 231 230 207 219 177 199 216 225 175 189 195 194 180 153 168 206 213 210 236 250 265 260 203 208 241 247 246 247 249 250 254 234 230 227 236
190 185 182 185 184 186 188 195 210 233 228 227 226 215 220 222 211 179 181 184 151 146 218 195 216 199 225 227 233 227 254 235 238 236 254 255 254 258 248 250 247 242 245
194 185 187 185 188 186 192 199 205 213 218 234 137 221 231 194 171 164 133 114 123 260 217 231 235 205 221 256 275 254 321 283 259 251 251 257 262 264 265 260 256 253 252
182 191 192 185 192 190 192 196 201 210 216 226 115 73 57 94 91 100 130 26 166 176 226 247 212 261 96 304 332 334 287 279 299 303 282 265 270 265 263 264 265 259 262
190 188 185 183 196 188 187 192 197 201 165 107 104 109 134 143 89 95 89 70 51 60 83 159 70 45 65 41 278 261 316 340 322 297 300 297 285 269 275 283 280 272 259
188 174 191 172 178 192 192 189 169 131 106 94 93 75 88 101 93 100 96 70 65 61 54 351 40 53 65 69 55 44 28 357 9 355 336 314 303 298 289 287 283 267 269
140 145 174 172 136 127 122 115 108 107 110 108 100 85 59 92 94 94 93 69 62 62 79 89 26 55 59 69 72 60 43 28 10 356 348 345 335 320 310 296 292 283 285
116 116 105 98 103 108 99 106 112 115 117 113 113 107 100 100 105 87 71 100 113 87 81 102 87 81 63 57 53 49 49 34 10 7 360 359 359 357 349 330 327 323 305
122 120 117 115 116 114 113 111 107 103 107 108 107 108 97 91 78 113 126 93 87 81 86 92 76 74 68 58 50 44 39 27 28 24 23 17 25 23 18 358 346 336 314
128 126 127 123 112 109 107 115 116 113 115 111 108 106 101 118 126 87 83 91 93 88 77 76 73 61 55 49 43 38 25 24 34 17 19 21 17 2 0 5 347 327 322
124 123 120 110 113 119 111 114 116 119 123 111 117 128 116 110 98 105 107 105 100 92 96 81 70 67 63 52 45 36 26 21 18 10 17 6 351 350 348 359 337 316 310